Location: Newark
(58.2667°N, 22.3833°E)
Time: 23:28:56
(UTC+00:00)

ISS - Visible Passes

Search period start: 21 October 2019 00:00
Search period end: 31 October 2019 00:00
Orbit: 411 x 421 km, 51.6° (Epoch: 21 October)

Date Brightness Start Highest point End Pass type
(mag) Time Alt. Az. Time Alt. Az. Time Alt. Az.
27 Oct -0.8 04:04:16 10° S 04:05:36 12° SSE 04:06:57 10° SE visible
28 Oct -1.4 04:50:27 10° SW 04:53:05 21° SSE 04:55:41 10° ESE visible
29 Oct -1.3 04:02:15 10° SSW 04:04:37 18° SSE 04:07:00 10° ESE visible
30 Oct -1.2 03:14:50 12° S 03:16:12 15° SSE 03:18:09 10° ESE visible
30 Oct -1.9 04:49:21 10° SW 04:52:11 25° S 04:55:02 10° ESE visible
